Total_Precipitation_Accumulation
0.72 0.74 0.74 0.76 0.80 0.82 0.78 0.73 0.68 0.64 0.60 0.59 0.55 0.53 0.51 0.49 0.49 0.48 0.45 0.41 0.37 0.34 0.30 0.28 0.28 0.28 0.29 0.28 0.31 0.37 0.44 0.55 0.63 0.46 0.36 0.38 0.44 0.44 0.47 0.50 0.50 0.53 0.65
0.58 0.59 0.58 0.57 0.57 0.59 0.62 0.62 0.58 0.57 0.55 0.52 0.46 0.44 0.42 0.38 0.34 0.32 0.30 0.26 0.26 0.25 0.25 0.26 0.25 0.26 0.27 0.28 0.32 0.37 0.42 0.53 0.69 0.64 0.50 0.51 0.53 0.53 0.62 0.65 0.57 0.50 0.57
0.50 0.51 0.49 0.50 0.48 0.49 0.50 0.49 0.46 0.45 0.45 0.41 0.37 0.36 0.34 0.32 0.29 0.27 0.25 0.23 0.22 0.23 0.24 0.25 0.25 0.27 0.30 0.34 0.42 0.47 0.49 0.54 0.69 0.75 0.64 0.64 0.69 0.74 0.85 0.78 0.67 0.64 0.52
0.49 0.47 0.46 0.48 0.48 0.46 0.44 0.42 0.40 0.39 0.40 0.41 0.38 0.32 0.27 0.24 0.22 0.21 0.19 0.18 0.20 0.21 0.23 0.27 0.30 0.35 0.40 0.46 0.49 0.53 0.57 0.63 0.68 0.76 0.73 0.76 0.81 0.86 0.92 0.91 0.77 0.68 0.61
0.47 0.47 0.50 0.52 0.53 0.50 0.48 0.46 0.45 0.43 0.40 0.39 0.37 0.33 0.28 0.23 0.19 0.15 0.13 0.15 0.19 0.22 0.25 0.27 0.30 0.38 0.45 0.44 0.42 0.46 0.57 0.70 0.73 0.81 0.82 0.79 0.78 0.88 0.91 0.79 0.70 0.61 0.55
0.56 0.57 0.57 0.55 0.52 0.51 0.49 0.47 0.48 0.45 0.41 0.36 0.33 0.29 0.26 0.19 0.17 0.15 0.13 0.15 0.21 0.26 0.29 0.28 0.25 0.26 0.25 0.27 0.34 0.40 0.50 0.69 0.92 1.04 0.96 0.86 0.74 0.75 0.78 0.73 0.72 0.67 0.60
0.69 0.65 0.58 0.53 0.50 0.47 0.43 0.44 0.44 0.39 0.33 0.30 0.26 0.22 0.21 0.17 0.14 0.12 0.12 0.15 0.23 0.31 0.33 0.30 0.23 0.18 0.21 0.25 0.29 0.34 0.45 0.61 0.84 1.11 1.15 0.91 0.82 0.78 0.81 0.81 0.82 0.83 0.75
0.68 0.63 0.53 0.45 0.43 0.43 0.43 0.40 0.35 0.31 0.28 0.27 0.23 0.20 0.20 0.14 0.10 0.10 0.10 0.13 0.21 0.26 0.29 0.28 0.30 0.29 0.25 0.26 0.28 0.35 0.48 0.64 0.75 0.82 1.08 0.94 0.76 0.73 0.76 0.76 0.81 0.81 0.72
0.62 0.52 0.41 0.35 0.35 0.35 0.33 0.30 0.29 0.28 0.27 0.23 0.18 0.18 0.20 0.16 0.08 0.07 0.07 0.11 0.17 0.20 0.22 0.21 0.20 0.24 0.24 0.34 0.44 0.60 0.74 0.90 0.88 0.98 1.14 1.10 0.98 0.89 0.76 0.72 0.81 0.80 0.75
0.43 0.36 0.31 0.28 0.24 0.21 0.22 0.23 0.24 0.25 0.23 0.18 0.14 0.16 0.18 0.16 0.07 0.05 0.05 0.09 0.14 0.17 0.21 0.25 0.19 0.18 0.26 0.43 0.61 0.81 0.94 1.05 0.97 1.06 1.27 1.33 1.17 1.14 1.09 0.94 0.91 0.83 0.78
0.29 0.25 0.22 0.18 0.15 0.14 0.16 0.19 0.19 0.18 0.18 0.17 0.17 0.18 0.16 0.10 0.06 0.04 0.04 0.05 0.09 0.14 0.22 0.31 0.32 0.26 0.33 0.52 0.72 0.84 1.00 1.07 1.07 1.10 1.10 1.09 1.15 1.16 1.09 1.02 0.92 0.80 0.72
0.22 0.20 0.17 0.13 0.09 0.09 0.16 0.18 0.17 0.18 0.18 0.17 0.17 0.17 0.16 0.13 0.06 0.03 0.02 0.03 0.05 0.17 0.31 0.36 0.38 0.36 0.42 0.62 0.78 0.98 1.17 1.27 1.19 1.15 0.98 0.87 0.83 0.84 0.85 0.80 0.72 0.64 0.59
0.22 0.22 0.19 0.15 0.12 0.10 0.14 0.15 0.15 0.16 0.14 0.12 0.13 0.15 0.15 0.16 0.11 0.02 0.02 0.02 0.05 0.15 0.30 0.36 0.40 0.42 0.58 0.90 1.08 1.22 1.35 1.39 1.34 1.15 0.94 0.84 0.73 0.66 0.65 0.68 0.66 0.58 0.52
0.26 0.24 0.22 0.21 0.17 0.12 0.12 0.09 0.10 0.11 0.10 0.11 0.13 0.15 0.17 0.17 0.11 0.07 0.08 0.09 0.11 0.17 0.31 0.44 0.54 0.61 0.78 1.08 1.28 1.45 1.48 1.37 1.16 1.02 0.90 0.84 0.73 0.64 0.63 0.56 0.53 0.50 0.52
0.24 0.19 0.17 0.15 0.15 0.15 0.12 0.05 0.05 0.06 0.03 0.06 0.10 0.12 0.15 0.13 0.07 0.07 0.10 0.11 0.13 0.17 0.29 0.46 0.62 0.75 0.94 1.13 1.29 1.36 1.35 1.24 1.09 0.89 0.78 0.80 0.79 0.72 0.66 0.55 0.47 0.41 0.46
0.20 0.16 0.11 0.09 0.09 0.10 0.15 0.12 0.03 0.02 0.02 0.02 0.03 0.05 0.06 0.07 0.05 0.07 0.10 0.13 0.17 0.23 0.33 0.48 0.60 0.71 0.90 1.11 1.23 1.22 1.14 1.06 0.95 0.81 0.73 0.70 0.70 0.67 0.63 0.54 0.44 0.41 0.43
0.15 0.12 0.08 0.07 0.07 0.08 0.13 0.20 0.18 0.10 0.05 0.05 0.03 0.04 0.04 0.04 0.05 0.07 0.11 0.17 0.19 0.25 0.34 0.50 0.62 0.72 0.88 1.04 1.10 1.09 1.05 0.95 0.85 0.76 0.71 0.65 0.59 0.55 0.50 0.44 0.39 0.38 0.37
0.08 0.05 0.05 0.07 0.06 0.07 0.10 0.12 0.16 0.20 0.23 0.20 0.10 0.05 0.04 0.06 0.07 0.08 0.11 0.16 0.22 0.26 0.39 0.54 0.64 0.71 0.78 0.85 0.92 0.97 0.99 0.91 0.79 0.72 0.70 0.65 0.57 0.49 0.41 0.36 0.34 0.30 0.30
0.06 0.08 0.07 0.06 0.05 0.05 0.06 0.08 0.10 0.13 0.17 0.20 0.17 0.11 0.08 0.10 0.12 0.15 0.17 0.21 0.28 0.35 0.44 0.55 0.62 0.67 0.69 0.69 0.74 0.81 0.83 0.81 0.74 0.68 0.66 0.63 0.56 0.47 0.37 0.30 0.25 0.16 0.19
0.04 0.02 0.03 0.04 0.03 0.03 0.04 0.06 0.07 0.10 0.14 0.18 0.19 0.16 0.16 0.23 0.28 0.29 0.25 0.23 0.27 0.35 0.43 0.50 0.55 0.59 0.57 0.57 0.58 0.62 0.64 0.65 0.61 0.59 0.56 0.53 0.46 0.36 0.29 0.23 0.20 0.18 0.20
0.03 0.01 0.01 0.02 0.03 0.03 0.03 0.04 0.06 0.08 0.13 0.18 0.17 0.14 0.20 0.28 0.34 0.34 0.33 0.31 0.33 0.37 0.40 0.42 0.44 0.46 0.45 0.44 0.44 0.45 0.49 0.53 0.54 0.55 0.52 0.46 0.37 0.29 0.23 0.18 0.15 0.13 0.13
0.01 0.01 0.01 0.02 0.02 0.01 0.01 0.03 0.05 0.07 0.09 0.12 0.15 0.15 0.22 0.26 0.30 0.34 0.36 0.38 0.38 0.38 0.37 0.36 0.37 0.38 0.37 0.37 0.36 0.36 0.39 0.42 0.48 0.52 0.52 0.45 0.34 0.25 0.19 0.14 0.12 0.11 0.10
0.00 0.00 0.00 0.01 0.00 0.00 0.01 0.02 0.04 0.05 0.07 0.09 0.11 0.14 0.20 0.27 0.33 0.37 0.39 0.38 0.38 0.37 0.33 0.30 0.32 0.34 0.33 0.30 0.29 0.31 0.33 0.36 0.42 0.48 0.51 0.44 0.32 0.23 0.17 0.15 0.13 0.12 0.08
0.00 0.00 0.00 0.00 0.00 0.00 0.01 0.02 0.02 0.03 0.05 0.07 0.10 0.13 0.18 0.26 0.33 0.40 0.43 0.41 0.39 0.38 0.35 0.33 0.32 0.31 0.27 0.23 0.21 0.20 0.21 0.26 0.35 0.43 0.43 0.40 0.30 0.21 0.14 0.13 0.12 0.09 0.08
0.00 0.00 0.00 0.00 0.00 0.00 0.01 0.01 0.01 0.02 0.03 0.04 0.06 0.08 0.12 0.16 0.22 0.30 0.39 0.43 0.43 0.43 0.39 0.37 0.36 0.32 0.26 0.19 0.14 0.12 0.17 0.24 0.29 0.33 0.37 0.35 0.26 0.20 0.15 0.13 0.10 0.06 0.06
0.00 0.00 0.00 0.00 0.00 0.00 0.00 0.01 0.01 0.01 0.01 0.02 0.03 0.04 0.05 0.08 0.12 0.18 0.26 0.32 0.37 0.42 0.46 0.49 0.46 0.36 0.26 0.19 0.17 0.17 0.18 0.19 0.19 0.20 0.25 0.28 0.21 0.17 0.15 0.13 0.07 0.05 0.05